Stations météo

réclame
Mon MeteoGroup
Langres, France (7283): Température de l'air & dewpoint: 11.01.2018 07:00:00 - 17.01.2018 07:00:00 (CET)Langres, France (7283): Température de l'air 5cm: 11.01.2018 07:00:00 - 17.01.2018 07:00:00 (CET)Langres, France (7283): Vitesse du vent & gusts: 11.01.2018 07:00:00 - 17.01.2018 07:00:00 (CET)Langres, France (7283): Direction du vent: 11.01.2018 07:00:00 - 17.01.2018 07:00:00 (CET)Langres, France (7283): reduced air pressure: 11.01.2018 07:00:00 - 17.01.2018 07:00:00 (CET)Langres, France (7283): visibility: 11.01.2018 07:00:00 - 17.01.2018 07:00:00 (CET)Langres, France (7283): Ensoleillement: 11.01.2018 07:00:00 - 17.01.2018 07:00:00 (CET)Langres, France (7283): Quantités de précipitations: 11.01.2018 07:00:00 - 17.01.2018 07:00:00 (CET)
Date & Time tt [°C] td [°C] tt 5cm [°C] ff [km/h] ff [knt] fx [km/h] fx [knt] dd ppp [hPa] vv [km] sd [min] rr [mm]
17.01.2018 07:00:00 2,0 -2,0 1,4 31 17 64 34 W 1007,5 20 0 0,0
17.01.2018 06:00:00 2,2 -1,6 1,6 31 17 65 35 W 1006,5 20 0 0,0
17.01.2018 05:00:00 2,2 -1,2 1,4 29 16 55 30 WSW 1005,8 20 0 0,0
17.01.2018 04:00:00 2,7 -0,6 1,9 31 17 65 35 WSW 1004,3 20 0 0,0
17.01.2018 03:00:00 2,6 0,2 2,0 33 18 60 32 WSW 1003,5 20 0 0,0
17.01.2018 02:00:00 2,4 0,6 1,7 27 15 48 26 W 1003,3 20 0 2,0
17.01.2018 01:00:00 3,5 1,4 2,9 29 15 57 31 WSW 1002,8 6 0 0,6
17.01.2018 00:00:00 3,8 1,8 3,0 21 12 57 31 W 1003,3 15 0 1,4
16.01.2018 23:00:00 4,1 2,0 2,9 27 14 52 28 WSW 1003,0 20 0 1,4
16.01.2018 22:00:00 4,4 2,6 3,3 15 8 34 19 SW 1003,3 20 0 0,0
16.01.2018 21:00:00 4,4 2,4 3,5 19 11 39 21 WSW 1004,3 20 0 0,0
16.01.2018 20:00:00 4,1 2,8 2,6 22 12 41 22 WSW 1004,4 20 0 0,0
16.01.2018 19:00:00 3,9 1,8 3,2 32 18 58 31 W 1004,6 8 0 2,4
16.01.2018 18:00:00 6,6 2,7 5,2 29 16 57 31 WSW 1003,1 20 0 0,0
16.01.2018 17:00:00 6,7 3,1 5,7 21 12 61 33 WSW 1002,9 20 24 0,0
16.01.2018 16:00:00 6,3 3,3 5,4 27 15 46 25 WSW 1004,0 20 13 0,4
16.01.2018 15:00:00 6,5 2,9 6,3 26 14 49 27 WSW 1004,6 17 2 0,0
16.01.2018 14:00:00 7,2 4,0 7,3 27 15 58 31 WSW 1004,8 20 21 0,0
16.01.2018 13:00:00 6,9 4,2 6,0 32 17 75 40 W 1004,8 20 5 0,6
16.01.2018 12:00:00 7,4 5,4 6,4 37 20 68 37 WSW 1004,0 18 0 1,2
16.01.2018 11:00:00 6,7 4,9 6,2 23 12 55 30 WSW 1004,0 8 0 1,6
16.01.2018 10:00:00 7,2 5,0 6,3 29 15 63 34 WSW 1004,1 12 5 0,2
16.01.2018 09:00:00 6,8 4,3 5,8 29 16 65 35 SW 1003,8 20 4 0,2
16.01.2018 08:00:00 6,8 4,3 6,0 30 16 74 40 WSW 1003,8 20 0 0,6
16.01.2018 07:00:00 6,8 4,8 5,9 29 16 59 32 WSW 1003,5 7 0 0,2
16.01.2018 06:00:00 6,8 3,9 6,1 29 16 59 32 WSW 1003,3 20 0 0,6
16.01.2018 05:00:00 6,8 4,9 5,7 25 14 56 30 SW 1003,5 20 0 0,6
16.01.2018 04:00:00 6,5 5,1 5,5 21 11 42 23 SW 1004,1 17 0 0,4
16.01.2018 03:00:00 5,7 4,7 5,3 22 12 39 21 SSW 1004,8 20 0 0,0
16.01.2018 02:00:00 5,7 4,7 5,3 18 10 44 24 SSW 1005,4 6 0 0,8
16.01.2018 01:00:00 5,6 4,4 5,0 24 13 51 27 SW 1005,8 20 0 0,4
16.01.2018 00:00:00 5,2 4,0 4,7 28 15 55 30 SSW 1006,1 4,8 0 0,8
15.01.2018 23:00:00 5,1 3,8 4,4 30 16 66 36 SSW 1006,0 5 0 0,5
15.01.2018 22:00:00 4,7 3,4 3,9 29 16 58 31 SSW 1005,9 6 0 0,4
15.01.2018 21:00:00 4,3 2,8 3,8 32 17 64 35 SSW 1006,4 6 0 0,4
15.01.2018 20:00:00 4,3 2,5 3,8 33 18 65 35 SSW 1006,9 5 0 0,8
15.01.2018 19:00:00 4,3 2,6 3,7 36 19 72 39 SSW 1006,9 4,0 0 1,6
15.01.2018 18:00:00 4,0 2,5 3,6 32 18 63 34 S 1007,9 7 0 2,2
15.01.2018 17:00:00 4,2 2,4 3,8 27 15 56 30 S 1009,3 7 0 0,4
15.01.2018 16:00:00 4,6 1,8 4,5 29 15 48 26 S 1010,4 18 0 0,0
15.01.2018 15:00:00 4,5 2,2 4,6 21 12 38 21 S 1011,9 10 0 0,0
15.01.2018 14:00:00 4,7 2,1 5,0 16 8 31 17 S 1014,1 13 0 0,0
15.01.2018 13:00:00 3,9 1,8 5,3 20 11 37 20 S 1015,6 7 14 0,0
15.01.2018 12:00:00 3,9 1,8 4,4 16 9 31 17 S 1016,7 8 13 0,0
15.01.2018 11:00:00 2,9 0,5 2,9 18 10 27 15 SSW 1018,1 10 6 0,0
15.01.2018 10:00:00 2,5 0,2 2,0 14 8 26 14 SSW 1018,8 10 0 0,0
15.01.2018 09:00:00 1,9 -0,2 1,9 11 6 21 12 SSW 1019,7 8 0 0,0
15.01.2018 08:00:00 2,1 0,0 1,5 10 5 19 10 SSW 1019,6 9 0 0,0
15.01.2018 07:00:00 1,8 0,0 1,0 10 6 21 12 SW 1019,7 7 0 0,0
15.01.2018 06:00:00 2,0 -0,4 1,8 13 7 29 16 SSW 1019,6 8 0 0,0
15.01.2018 05:00:00 2,3 -0,5 1,7 16 9 32 17 S 1019,8 9 0 0,0
15.01.2018 04:00:00 2,1 -0,7 0,1 13 7 22 12 S 1020,4 10 0 0,0
15.01.2018 03:00:00 1,3 -0,8 -1,6 9 5 19 10 S 1021,1 10 0 0,0
15.01.2018 02:00:00 1,2 -1,5 -0,5 10 6 17 9 S 1021,1 11 0 0,0
15.01.2018 01:00:00 1,8 -0,9 -0,9 12 6 20 11 S 1021,4 14 0 0,0
15.01.2018 00:00:00 1,0 -1,2 -2,1 9 5 15 8 S 1021,8 14 0 0,0
14.01.2018 23:00:00 1,2 -2,2 -2,4 9 5 13 7 SSE 1021,8 11 0 0,0
14.01.2018 22:00:00 2,7 -1,1 0,9 6 3 15 8 S 1021,5 18 0 0,0
14.01.2018 21:00:00 2,6 -1,0 0,9 8 5 13 7 S 1021,0 18 0 0,0
14.01.2018 20:00:00 2,5 -1,1 -1,9 6 3 16 9 ESE 1020,7 19 0 0,0
14.01.2018 19:00:00 2,5 -1,5 -0,4 9 5 15 8 S 1020,5 18 0 0,0
14.01.2018 18:00:00 3,1 -1,1 -0,1 6 4 11 6 S 1020,2 20 0 0,0
14.01.2018 17:00:00 4,4 -0,2 2,4 9 5 23 12 SSE 1019,7 18 14 0,0
14.01.2018 16:00:00 7,1 1,2 8,2 14 7 21 12 SSE 1018,8 19 60 0,0
14.01.2018 15:00:00 9,0 1,6 11,1 17 9 25 13 SSE 1018,1 20 60 0,0
14.01.2018 14:00:00 8,1 1,0 9,5 13 7 20 11 SSE 1018,3 17 60 0,0
14.01.2018 13:00:00 6,0 -0,1 5,8 9 5 17 9 SE 1018,9 18 26 0,0
14.01.2018 12:00:00 3,9 -1,3 4,0 5 3 17 9 E 1019,7 16 34 0,0
14.01.2018 11:00:00 1,1 -2,5 1,5 5 3 14 8 ESE 1020,5 13 9 0,0
14.01.2018 10:00:00 -0,1 -3,0 -0,8 11 6 18 10 E 1020,2 10 38 0,0
14.01.2018 09:00:00 -0,9 -3,1 -1,8 11 6 16 8 E 1019,8 9 9 0,0
14.01.2018 08:00:00 -0,9 -3,1 -1,7 11 6 16 9 E 1019,5 9 0 0,0
14.01.2018 07:00:00 -0,1 -3,1 -1,5 8 4 19 10 E 1018,9 10 0 0,0
14.01.2018 06:00:00 0,1 -2,3 -1,7 12 7 19 10 SE 1018,7 11 0 0,0
14.01.2018 05:00:00 0,3 -2,7 -0,8 11 6 19 10 ESE 1018,9 13 0 0,0
14.01.2018 04:00:00 0,5 -2,4 -0,8 9 5 17 9 SE 1019,1 14 0 0,0
14.01.2018 03:00:00 0,1 -2,4 -0,8 10 6 16 9 E 1019,1 11 0 0,0
14.01.2018 02:00:00 0,3 -2,6 -0,6 9 5 19 10 E 1019,0 10 0 0,0
14.01.2018 01:00:00 0,8 -2,3 0,3 13 7 23 12 E 1019,1 11 0 0,0
14.01.2018 00:00:00 1,0 -2,2 0,5 14 8 23 12 E 1019,3 12 0 0,0
13.01.2018 23:00:00 1,3 -2,1 0,5 13 7 23 13 E 1019,3 12 0 0,0
13.01.2018 22:00:00 1,2 -1,9 0,3 15 8 26 14 E 1019,3 11 0 0,0
13.01.2018 21:00:00 1,4 -1,7 0,6 13 7 27 14 E 1019,2 11 0 0,0
13.01.2018 20:00:00 1,7 -1,0 0,6 13 7 22 12 E 1019,2 9 0 0,0
13.01.2018 19:00:00 2,4 -1,0 1,3 12 7 22 12 E 1019,1 12 0 0,0
13.01.2018 18:00:00 2,7 -0,8 1,6 11 6 20 11 E 1019,0 13 0 0,0
13.01.2018 17:00:00 3,3 -0,5 2,0 9 5 18 10 ENE 1019,2 13 15 0,0
13.01.2018 16:00:00 4,8 0,0 5,8 10 6 22 12 ENE 1019,1 16 60 0,0
13.01.2018 15:00:00 5,2 0,2 8,0 11 6 22 12 E 1019,5 16 60 0,0
13.01.2018 14:00:00 5,2 0,2 5,8 10 5 31 17 E 1020,2 16 60 0,0
13.01.2018 13:00:00 4,0 -0,6 6,1 14 7 34 18 E 1021,2 17 60 0,0
13.01.2018 12:00:00 3,9 -0,3 5,2 11 6 26 14 E 1021,8 14 60 0,0
13.01.2018 11:00:00 1,7 -0,4 0,2 9 5 18 10 E 1022,8 8 60 0,0
13.01.2018 10:00:00 0,4 -0,5 -1,2 7 4 13 7 E 1023,0 3,8 47 0,0
13.01.2018 09:00:00 -0,6 -1,4 -1,8 5 3 14 8 E 1023,1 2,1 8 0,0
13.01.2018 08:00:00 -0,4 -1,1 -1,3 9 5 21 11 E 1022,9 2,0 0 0,0
13.01.2018 07:00:00 0,2 -0,5 0,0 10 5 16 9 E 1022,9 0,1 0 0,0
13.01.2018 06:00:00 0,9 0,2 0,7 7 4 16 9 ENE 1023,4 0,1 0 0,0
13.01.2018 05:00:00 0,9 0,2 0,3 9 5 15 8 ENE 1024,0 0,1 0 0,0
13.01.2018 04:00:00 1,0 0,1 -0,9 7 4 13 7 ENE 1024,6 0,3 0 0,0
13.01.2018 03:00:00 1,4 0,1 -0,7 7 4 16 9 E 1025,0 5 0 0,0
13.01.2018 02:00:00 1,4 -0,1 -2,6 4 2 7 4 E 1025,2 2,3 0 0,0
13.01.2018 01:00:00 2,2 0,7 -0,9 4 2 7 4 E 1025,2 2,9 0 0,0
13.01.2018 00:00:00 2,7 1,4 -0,5 2 1 6 4 ESE 1025,5 2,5 0 0,0
12.01.2018 23:00:00 3,7 1,9 3,1 0 0 6 4 N 1025,4 3,4 0 0,0
12.01.2018 22:00:00 3,8 1,8 3,0 3 2 9 5 NNE 1025,5 6 0 0,0
12.01.2018 21:00:00 3,8 1,8 3,0 4 2 14 8 NNE 1025,2 7 0 0,0
12.01.2018 20:00:00 3,6 2,3 -1,9 5 3 11 6 NE 1024,9 3,8 0 0,0
12.01.2018 19:00:00 3,3 0,7 -1,8 2 1 13 7 NNE 1025,0 10 0 0,0
12.01.2018 18:00:00 4,1 1,1 0,6 7 4 14 7 N 1024,6 19 0 0,0
12.01.2018 17:00:00 5,4 1,9 3,0 6 4 11 6 N 1024,5 18 35 0,0
12.01.2018 16:00:00 6,7 2,4 8,4 8 4 17 9 NNE 1024,3 20 53 0,0
12.01.2018 15:00:00 6,9 3,3 8,1 10 5 16 9 N 1023,9 16 - 0,0
12.01.2018 14:00:00 6,3 3,5 6,7 6 3 16 8 NNE 1024,0 13 - 0,0
12.01.2018 13:00:00 5,3 3,5 6,2 9 5 19 10 N 1024,5 6 - 0,0
12.01.2018 12:00:00 4,8 3,8 5,6 8 4 16 8 NNE 1025,0 4,0 - 0,0
12.01.2018 11:00:00 4,6 3,9 4,7 7 4 15 8 N 1025,1 2,2 - 0,0
12.01.2018 10:00:00 4,3 3,6 4,2 7 4 15 8 N 1024,8 2,2 - 0,0
12.01.2018 09:00:00 4,1 3,4 4,0 8 4 13 7 N 1024,2 2,7 - 0,0
12.01.2018 08:00:00 4,0 3,4 4,0 6 3 13 7 N 1023,9 0,7 - 0,0
12.01.2018 07:00:00 4,0 3,4 3,7 8 4 13 7 N 1023,4 1,2 - 0,0
12.01.2018 06:00:00 3,8 3,1 3,6 5 3 13 7 WNW 1023,2 0,1 - 0,0
12.01.2018 05:00:00 4,0 3,4 3,5 5 3 11 6 N 1022,8 2,8 - 0,0
12.01.2018 04:00:00 3,6 3,0 3,5 3 2 11 6 NNW 1023,0 0,2 - 0,0
12.01.2018 03:00:00 3,5 2,9 3,3 5 3 10 6 NW 1022,7 0,1 - 0,0
12.01.2018 02:00:00 3,3 2,7 1,8 5 3 12 7 NNW 1022,3 0,3 - 0,0
12.01.2018 01:00:00 3,1 2,4 1,8 5 3 15 8 NNW 1022,0 0,3 - 0,0
12.01.2018 00:00:00 3,4 2,7 1,9 8 4 14 7 NW 1021,8 0,2 - 0,0
11.01.2018 23:00:00 3,6 2,6 1,5 6 4 11 6 NNW 1021,4 7 - 0,0
11.01.2018 22:00:00 3,9 2,7 1,8 6 4 9 5 NW 1020,8 3,7 - 0,0
11.01.2018 21:00:00 4,3 3,0 2,4 4 2 11 6 NNW 1020,4 13 - 0,0
11.01.2018 20:00:00 4,5 3,2 2,3 5 3 9 5 NW 1019,8 13 - 0,0
11.01.2018 19:00:00 4,9 3,2 3,6 5 3 14 8 NNW 1019,1 20 - 0,0
11.01.2018 18:00:00 5,2 3,4 3,9 7 4 13 7 NNW 1018,6 20 - 0,0
11.01.2018 17:00:00 5,5 3,5 4,6 6 4 12 7 NNW 1017,9 20 - 0,0
11.01.2018 16:00:00 5,8 3,3 6,1 0 0 6 3 N 1017,0 20 - 0,0
11.01.2018 15:00:00 6,1 4,3 8,1 5 3 8 4 ENE 1016,4 3,9 - 0,0
11.01.2018 14:00:00 5,4 3,4 6,9 4 2 7 4 WNW 1016,0 16 - 0,0
11.01.2018 13:00:00 4,7 3,8 3,8 3 2 6 3 ENE 1016,2 0,3 - 0,0
11.01.2018 12:00:00 2,7 1,7 3,6 5 3 8 5 ENE 1016,5 0,1 - 0,0
11.01.2018 11:00:00 3,6 2,3 4,5 3 1 - - NE 1015,9 0,3 - 0,0
11.01.2018 10:00:00 3,3 2,3 -0,9 - - - - - 1015,3 1,1 - 0,0
11.01.2018 09:00:00 2,4 1,5 -1,4 - - - - - 1014,7 20 - 0,0
11.01.2018 08:00:00 2,4 1,2 -1,0 - - - - - 1014,2 17 - 0,0
11.01.2018 07:00:00 3,3 2,4 1,8 - - - - - 1013,3 5 - 0,0

tt = Température de l'air
td = dewpoint
tt 5cm = Température de l'air 5cm
ff = Vitesse du vent
fx = gusts
dd = Direction du vent
ppp = reduced air pressure
vv = visibility
sd = Ensoleillement
rr = Quantités de précipitations

stations d'obs. à proximité